Regional Weather Roundup
Issued by NWS Memphis, TN

Home | Current Version | Previous Version | Text Only | Print | Product List | Glossary On
Versions: 1 2 3 4 5 6 7 8 9 10 11 12 13 14 15 16 17 18 19 20 21 22 23 24 25 26 27 28 29 30 31 32 33 34 35 36 37 38 39 40 41 42 43 44 45 46 47 48 49 50
000
ASUS44 KMEG 080610
RWRMEG
MEMPHIS CWA HOURLY WEATHER ROUNDUP
NATIONAL WEATHER SERVICE MEMPHIS TN
1200 AM CST THU DEC 08 2016

...WEST TENNESSEE...

CITY           SKY/WX    TMP DP  RH WIND       PRES   REMARKS
MEMPHIS INTL   CLOUDY    41  26  55 N5        30.30R
6HR MIN TEMP:  41; 6HR MAX TEMP:  44;

NWS MEMPHIS      N/A     40 N/A N/A MISG        N/A
JACKSON        CLOUDY    40  26  57 N14       30.29R WCI  32
6HR MIN TEMP:  40; 6HR MAX TEMP:  42;

BOLIVAR        CLOUDY    41  28  60 NW5       30.28R
LEXINGTON      CLOUDY    39  25  56 N9        30.26R WCI  33
DYERSBURG      CLOUDY    37  21  52 N12       30.31S WCI  30
6HR MIN TEMP:  37; 6HR MAX TEMP:  43;

UNION CITY     CLOUDY    36  25  64 CALM      30.29F
PARIS          CLOUDY    34  19  55 N6        30.29R WCI  29
HUNTINGDON     CLOUDY    39  27  60 VRB7G13   30.28R WCI  34


...EASTERN ARKANSAS...

CITY           SKY/WX    TMP DP  RH WIND       PRES   REMARKS
JONESBORO      CLOUDY    40  22  48 N5        30.35R
6HR MIN TEMP:  40; 6HR MAX TEMP:  42;

WEST MEMPHIS   CLOUDY    40  26  57 NE13G20   30.32R WCI  32
6HR MIN TEMP:  40; 6HR MAX TEMP:  43;

BATESVILLE     CLOUDY    37  19  48 N6        30.37S WCI  33
6HR MIN TEMP:  37; 6HR MAX TEMP:  39;

WALNUT RIDGE   CLOUDY    37  21  52 N9        30.36R WCI  31
6HR MIN TEMP:  37; 6HR MAX TEMP:  39;

BLYTHEVILLE    CLOUDY    38  29  70 N9        30.34R WCI  31
6HR MIN TEMP:  38; 6HR MAX TEMP:  42;

SEARCY         CLOUDY    40  23  50 N8        30.38R WCI  34
6HR MIN TEMP:  40; 6HR MAX TEMP:  41;

STUTTGART      CLOUDY    39  27  60 N10       30.35R WCI  32
6HR MIN TEMP:  39; 6HR MAX TEMP:  43;

PINE BLUFF     CLOUDY    40  28  62 N8        30.35R WCI  34
6HR MIN TEMP:  39; 6HR MAX TEMP:  43;

MONTICELLO     CLOUDY    43  35  73 N7        30.31R
6HR MIN TEMP:  43; 6HR MAX TEMP:  46;



...NORTH MISSISSIPPI...

CITY           SKY/WX    TMP DP  RH WIND       PRES   REMARKS
TUPELO         MOCLDY    42  33  70 NW6       30.25R
6HR MIN TEMP:  42; 6HR MAX TEMP:  45;

OXFORD         MOCLDY    39  32  75 N9        30.29S WCI  33
BATESVILLE     CLOUDY    42  35  76 NW6       30.30R
6HR MIN TEMP:  42; 6HR MAX TEMP:  44;

TUNICA         CLOUDY    39  30  70 N10       30.32S WCI  32
CLARKSDALE     CLOUDY    43  34  70 N12       30.31S
CORINTH        CLOUDY    41  30  65 NW8       30.25F
GREENWOOD      MOCLDY    41  37  86 N6        30.26F
6HR MIN TEMP:  41; 6HR MAX TEMP:  49;

COLUMBUS       PTCLDY    40  38  92 CALM      30.24R
6HR MIN TEMP:  39; 6HR MAX TEMP:  47;

STARKVILLE     PTCLDY    37  37 100 CALM      30.26S
GOLDEN TRIANGL PTCLDY    41  36  81 N5        30.20S
6HR MIN TEMP:  41; 6HR MAX TEMP:  46;



...SOUTHEAST MISSOURI...

CITY           SKY/WX    TMP DP  RH WIND       PRES   REMARKS
KENNETT        CLOUDY    39  25  56 N7G14     30.33S WCI  34
WEST PLAINS    MOCLDY    30  24  78 NW13G21   30.37R WCI  20
6HR MIN TEMP:  30; 6HR MAX TEMP:  35;

POPLAR BLUFF   CLOUDY    37  23  56 N14       30.34S WCI  28
6HR MIN TEMP:  37; 6HR MAX TEMP:  40;

CAPE GIRARDEAU CLOUDY    35  22  58 NW7       30.33S WCI  29
6HR MIN TEMP:  35; 6HR MAX TEMP:  37;



...NORTHWEST ALABAMA...

CITY           SKY/WX    TMP DP  RH WIND       PRES   REMARKS
MUSCLE SHOALS  CLOUDY    42  34  73 N3        30.23S
6HR MIN TEMP:  41; 6HR MAX TEMP:  44;



...MIDDLE TENNESSEE...

CITY           SKY/WX    TMP DP  RH WIND       PRES   REMARKS
NASHVILLE      CLOUDY    40  24  53 N8        30.24S WCI  34
6HR MIN TEMP:  39; 6HR MAX TEMP:  43;

CLARKSVILLE    CLOUDY    37  22  54 NW12      30.26R WCI  29
6HR MIN TEMP:  37; 6HR MAX TEMP:  40;

COLUMBIA       CLOUDY    39  30  70 N6        30.21R WCI  35


...WESTERN KENTUCKY...

CITY           SKY/WX    TMP DP  RH WIND       PRES   REMARKS
PADUCAH        CLOUDY    37  19  48 N7        30.30S WCI  32
6HR MIN TEMP:  37; 6HR MAX TEMP:  40;

FORT CAMPBELL  CLOUDY    36  23  58 NW5       30.26R WCI  32
6HR MIN TEMP:  36; 6HR MAX TEMP:  41;



...CENTRAL ARKANSAS...

CITY           SKY/WX    TMP DP  RH WIND       PRES   REMARKS
LITTLE ROCK    CLOUDY    38  28  67 N9        30.36R WCI  31
6HR MIN TEMP:  38; 6HR MAX TEMP:  41;



SKY/WX REPORTED AS FAIR MEANS FEW OR NO CLOUDS BELOW
12 THOUSAND FEET.





USA.gov is the U.S. government's official web portal to all federal, state and local government web resources and services.